Regional Weather Roundup
Issued by NWS Burlington, VT

Home | Current Version | Previous Version | Text Only | Print | Product List | Glossary On
Versions: 1 2 3 4 5 6 7 8 9 10 11 12 13 14 15 16 17 18 19 20 21 22 23 24 25 26 27 28 29 30 31 32 33 34 35 36 37 38 39 40 41 42 43 44 45 46 47 48 49 50
137
ASUS41 KBTV 130230
RWRBTV
VERMONT REGIONAL WEATHER ROUNDUP
NATIONAL WEATHER SERVICE BURLINGTON VT
900 PM EST FRI FEB 12 2016

NOTE: "FAIR" INDICATES FEW OR NO CLOUDS BELOW 12,000 FEET WITH NO
SIGNIFICANT WEATHER AND/OR OBSTRUCTIONS TO VISIBILITY.

* THESE REPORTS ARE NOT UNDER NWS QUALITY CONTROL AND/OR DO NOT
  REPORT WEATHER SUCH AS PRECIPITATION AND FOG.

VTZ001>019-130300-
_____VERMONT_____


CITY           SKY/WX    TMP DP  RH WIND       PRES   REMARKS
BURLINGTON     CLOUDY    19   3  49 S10       29.82F WCI   7
MONTPELIER     FAIR       9  -1  64 SE6       29.83F WCI  -1
MORRISVILLE    CLOUDY    13   2  61 CALM      29.81F
ST. JOHNSBURY*   N/A      9   1  70 MISG      29.83F
LYNDONVILLE*   FAIR      11   0  61 SE5       29.80F WCI   3
RUTLAND*       FAIR      12   0  57 SE10      29.83F WCI  -1
SPRINGFIELD    FAIR       8   1  73 CALM      29.88F
HIGHGATE*      FAIR      19   4  51 S10G18    29.79F WCI   8
NEWPORT*       CLOUDY    14   1  57 S8        29.79F WCI   3
BENNINGTON     FAIR      18   0  45 S8        29.84F WCI   8
SUTTON*          N/A      5 N/A N/A MISG        N/A
MT. MANSFIELD*   N/A      3 N/A N/A W23G36      N/A  WCI -19

_____LAKE CHAMPLAIN_____


CITY           SKY/WX    TMP DP  RH WIND       PRES   REMARKS
COLCHESTER RF*   N/A     25  14  63 S31         N/A  WCI   8
DIAMOND ISL*     N/A     23  10  58 S20         N/A  WCI   8

$$

NYZ007-026>031-035-052-083-130300-
_____NORTHERN NEW YORK_____


CITY           SKY/WX    TMP DP  RH WIND       PRES   REMARKS
PLATTSBURGH    PTCLDY    18   4  54 S8        29.80F WCI   8
SARANAC LAKE   LGT SNOW  13   5  70 SW16      29.67F WCI  -3
MASSENA        LGT SNOW  17  12  80 NW10      29.80R WCI   5
OGDENSBURG*    LGT SNOW  18  14  86 N10       29.80R WCI   6
WATERTOWN      LGT SNOW  17  11  77 N14       29.81R WCI   3
ALBANY         MOCLDY    20   3  48 S6        29.89F WCI  12
GLENS FALLS    CLEAR     15   1  53 S6        29.86F WCI   6

$$
NHZ002-005-011-130300-
_____NEW HAMPSHIRE_____


CITY           SKY/WX    TMP DP  RH WIND       PRES   REMARKS
LEBANON        MOCLDY    13   1  59 S5        29.86F WCI   5
MT WASHINGTON  FOG       -9  -9 100 SW18G25     N/A  VSB 1/8 WCI -33
PLYMOUTH       FAIR       6   3  87 CALM      29.89F
WHITEFIELD     CLEAR      2  -3  80 CALM      29.82F

$$

_____REGIONAL QUEBEC LOCATIONS_____


CITY           SKY/WX    TMP DP  RH WIND       PRES   REMARKS
MONTREAL       LGT SNOW  19  16  86 SW18G26   29.75S VSB 1   WCI   4
QUEBEC CITY    LGT SNOW   7   1  78 E9        29.85F WCI  -7
SHERBROOKE     PTCLDY     7   0  72 E6        29.78F WCI  -3

_____REGIONAL ONTARIO LOCATIONS_____


CITY           SKY/WX    TMP DP  RH WIND       PRES   REMARKS
OTTAWA         CLOUDY    12   3  67 NW18      29.80S WCI  -5

______KEY______
VSB  - VISIBILITY IN MILES
WCI  - WIND CHILL INDEX
HX   - HEAT INDEX
$$
NNNN




USA.gov is the U.S. government's official web portal to all federal, state and local government web resources and services.